GW7263 Weather Reports


time (UTC)temp
C
wind
direction
speed
KPH
gust
KPH
rain 1hr
cm
rain 24hr
cm
rain mn
cm
humidity
%
barometer
mb
20260503035539 7 0.0 0.0 0.00 0.00 0.00 87 1030.7
20260503034528 7 0.0 0.0 0.00 0.00 0.00 86 1030.7
20260503033544 7 0.0 0.0 0.00 0.00 0.00 87 1030.6
20260503032630 7 0.0 0.0 0.00 0.00 0.00 86 1030.6
20260503031621 7 342 0.0 1.6 0.00 0.00 0.00 85 1030.6
20260503030550 7 346 0.0 1.6 0.00 0.00 0.00 85 1030.7
20260503025540 7 324 0.0 0.0 0.00 0.00 0.00 85 1030.7
20260503024530 7 324 0.0 0.0 0.00 0.00 0.00 84 1030.9
20260503023520 7 323 0.0 1.6 0.00 0.00 0.00 85 1031.0
20260503022615 7 322 0.0 1.6 0.00 0.00 0.00 85 1031.0
20260503021601 7 322 0.0 0.0 0.00 0.00 0.00 85 1031.0
20260503020551 8 0.0 0.0 0.00 0.00 0.00 84 1031.0
20260503015540 7 323 0.0 1.6 0.00 0.00 0.00 84 1031.0
20260503014552 7 0.0 0.0 0.00 0.00 0.00 84 1030.9
20260503013541 7 0.0 0.0 0.00 0.00 0.00 84 1031.0
20260503012612 7 324 0.0 0.0 0.00 0.00 0.00 84 1031.2
20260503011628 7 0.0 0.0 0.00 0.00 0.00 84 1031.2
20260503010551 8 0.0 0.0 0.00 0.00 0.00 85 1031.2
20260503005541 7 0.0 0.0 0.00 0.00 0.00 84 1031.2
20260503004551 7 0.0 0.0 0.00 0.00 0.00 85 1031.4
20260503003522 8 0.0 0.0 0.00 0.00 0.00 83 1031.5
20260503002613 8 0.0 0.0 0.00 0.00 0.00 81 1031.6
20260503001603 8 0.0 0.0 0.00 0.00 0.00 81 1031.7
20260503000615 8 0.0 0.0 0.00 0.00 0.00 80 1031.8
20260502235542 8 0.0 0.0 0.00 0.00 0.00 81 1032.0
20260502234532 8 0.0 0.0 0.00 0.00 0.00 81 1032.1
20260502233548 9 0.0 0.0 0.00 0.00 0.00 79 1032.0
20260502232613 9 0.0 0.0 0.00 0.00 0.00 79 1032.1
20260502231603 10 324 0.0 0.0 0.00 0.00 0.00 77 1032.0
20260502230613 10 335 0.0 3.2 0.00 0.00 0.00 75 1032.0
20260502225543 10 297 1.6 1.6 0.00 0.00 0.00 77 1032.1
20260502224533 10 297 0.0 1.6 0.00 0.00 0.00 76 1032.0
20260502223524 10 297 0.0 0.0 0.00 0.00 0.00 77 1032.1
20260502222634 10 297 0.0 0.0 0.00 0.00 0.00 76 1032.2
20260502221624 10 297 0.0 0.0 0.00 0.00 0.00 75 1032.3
20260502220554 10 297 0.0 0.0 0.00 0.00 0.00 76 1032.2
20260502215544 10 297 0.0 0.0 0.00 0.00 0.00 74 1032.2
20260502214534 10 295 0.0 1.6 0.00 0.00 0.00 73 1032.2
20260502213524 10 286 0.0 1.6 0.00 0.00 0.00 75 1032.1
20260502212615 11 286 0.0 1.6 0.00 0.00 0.00 72 1032.2
20260502211605 11 280 0.0 1.6 0.00 0.00 0.00 71 1032.1
20260502210555 11 279 0.0 1.6 0.00 0.00 0.00 71 1032.1
20260502205545 11 0.0 0.0 0.00 0.00 0.00 70 1032.1
20260502204535 11 279 0.0 1.6 0.00 0.00 0.00 70 1032.0
20260502203545 11 279 0.0 1.6 0.00 0.00 0.00 69 1032.2
20260502202618 12 278 0.0 0.0 0.00 0.00 0.00 68 1032.2
20260502201606 12 278 0.0 0.0 0.00 0.00 0.00 66 1032.1
20260502200556 12 263 1.6 3.2 0.00 0.00 0.00 66 1032.2
20260502195545 12 259 1.6 1.6 0.00 0.00 0.00 65 1032.2
20260502194540 12 258 0.0 1.6 0.00 0.00 0.00 65 1032.0
20260502193526 13 258 0.0 1.6 0.00 0.00 0.00 64 1031.9
20260502192619 13 258 1.6 1.6 0.00 0.00 0.00 63 1031.7
20260502191607 13 258 1.6 1.6 0.00 0.00 0.00 61 1031.7
20260502190557 14 258 0.0 0.0 0.00 0.00 0.00 60 1031.6
20260502185607 14 258 1.6 1.6 0.00 0.00 0.00 57 1031.5
20260502184537 15 258 0.0 1.6 0.00 0.00 0.00 58 1031.2
20260502183526 15 258 0.0 1.6 0.00 0.00 0.00 56 1031.1
20260502182521 15 233 1.6 1.6 0.00 0.00 0.00 56 1031.0
20260502181608 15 229 0.0 1.6 0.00 0.00 0.00 55 1031.0
20260502180607 16 212 1.6 1.6 0.00 0.00 0.00 53 1030.8
20260502163549 19 227 1.6 3.2 0.00 0.00 0.00 42 1030.6
20260502162519 20 213 1.6 6.4 0.00 0.00 0.00 41 1030.6
20260502161610 20 215 3.2 4.8 0.00 0.00 0.00 41 1030.5
20260502160601 20 219 3.2 3.2 0.00 0.00 0.00 40 1030.7
20260502151611 22 199 6.4 11.3 0.00 0.00 0.00 35 1030.8
20260502150601 22 215 6.4 14.5 0.00 0.00 0.00 35 1030.9
20260502130602 22 205 6.4 12.9 0.00 0.00 0.00 34 1032.1
20260502123532 22 220 6.4 11.3 0.00 0.00 0.00 35 1032.5
20260502122523 22 201 4.8 16.1 0.00 0.00 0.00 36 1032.7
20260502121633 22 211 6.4 12.9 0.00 0.00 0.00 36 1032.8
20260502120603 22 187 6.4 14.5 0.00 0.00 0.00 36 1032.8
20260502115554 22 201 4.8 14.5 0.00 0.00 0.00 36 1033.0
20260502114543 21 203 6.4 14.5 0.00 0.00 0.00 37 1033.1
20260502113533 21 191 3.2 4.8 0.00 0.00 0.00 36 1033.2
20260502112525 21 208 6.4 12.9 0.00 0.00 0.00 36 1033.5
20260502111613 21 198 6.4 12.9 0.00 0.00 0.00 36 1033.7
20260502110625 21 189 4.8 9.7 0.00 0.00 0.00 37 1033.8
20260502105556 20 206 6.4 11.3 0.00 0.00 0.00 38 1034.1
20260502104543 20 201 6.4 12.9 0.00 0.00 0.00 38 1034.2
20260502103532 20 209 6.4 11.3 0.00 0.00 0.00 37 1034.5
20260502102524 20 211 4.8 11.3 0.00 0.00 0.00 39 1034.6
20260502101633 20 209 6.4 11.3 0.00 0.00 0.00 38 1034.7
20260502100603 20 201 3.2 6.4 0.00 0.00 0.00 39 1034.8
20260502090603 16 189 3.2 4.8 0.00 0.00 0.00 48 1035.8
20260502070626 11 194 0.0 0.0 0.00 0.00 0.00 73 1037.1
20260502065556 8 197 1.6 3.2 0.00 0.00 0.00 76 1037.2
20260502064546 7 0.0 0.0 0.00 0.00 0.00 84 1037.2
20260502063535 6 0.0 0.0 0.00 0.00 0.00 84 1037.3
20260502062525 6 0.0 0.0 0.00 0.00 0.00 84 1037.4
20260502061618 6 0.0 0.0 0.00 0.00 0.00 86 1037.4
20260502060606 6 0.0 0.0 0.00 0.00 0.00 85 1037.5
20260502055559 6 299 0.0 0.0 0.00 0.00 0.00 86 1037.7
20260502054546 6 299 0.0 0.0 0.00 0.00 0.00 87 1037.7
20260502053537 6 303 0.0 1.6 0.00 0.00 0.00 87 1037.7
20260502052530 5 303 0.0 1.6 0.00 0.00 0.00 87 1037.9
20260502051619 5 303 0.0 1.6 0.00 0.00 0.00 88 1038.0
20260502050611 5 303 0.0 0.0 0.00 0.00 0.00 88 1037.9
20260502045556 5 303 0.0 0.0 0.00 0.00 0.00 88 1037.8
20260502044546 5 303 0.0 1.6 0.00 0.00 0.00 89 1037.8
20260502043537 5 303 0.0 0.0 0.00 0.00 0.00 89 1037.7
20260502042546 5 303 0.0 0.0 0.00 0.00 0.00 90 1037.8
20260502041617 5 303 0.0 1.6 0.00 0.00 0.00 90 1037.6
20260502040648 5 303 0.0 0.0 0.00 0.00 0.00 90 1037.7